TimeEDT,TemperatureF,Dew PointF,Humidity,Sea Level PressureIn,VisibilityMPH,Wind Direction,Wind SpeedMPH,Gust SpeedMPH,PrecipitationIn,Events,Conditions,WindDirDegrees,DateUTC
12:54 AM,48.9,41.0,74,29.82,10.0,SW,6.9,-,N/A,,Clear,230,2014-03-11 04:54:00
1:54 AM,52.0,41.0,66,29.82,10.0,WSW,5.8,-,N/A,,Clear,250,2014-03-11 05:54:00
2:54 AM,53.1,41.0,64,29.82,10.0,WSW,5.8,-,N/A,,Clear,240,2014-03-11 06:54:00
3:54 AM,53.1,41.0,64,29.80,10.0,WSW,4.6,-,N/A,,Clear,250,2014-03-11 07:54:00
4:54 AM,48.0,41.0,77,29.79,10.0,SW,6.9,-,N/A,,Clear,230,2014-03-11 08:54:00
5:54 AM,45.0,39.9,82,29.79,10.0,SW,3.5,-,N/A,,Clear,230,2014-03-11 09:54:00
6:54 AM,44.1,41.0,89,29.79,10.0,Calm,Calm,-,N/A,,Clear,0,2014-03-11 10:54:00
7:54 AM,46.0,41.0,83,29.81,10.0,Calm,Calm,-,N/A,,Clear,0,2014-03-11 11:54:00
8:54 AM,52.0,45.0,77,29.82,10.0,WSW,3.5,-,N/A,,Clear,240,2014-03-11 12:54:00
9:54 AM,57.9,46.9,67,29.83,10.0,SW,3.5,-,N/A,,Clear,220,2014-03-11 13:54:00
10:54 AM,62.1,46.9,58,29.84,10.0,SSW,5.8,-,N/A,,Clear,210,2014-03-11 14:54:00
11:54 AM,66.0,48.0,52,29.82,10.0,Calm,Calm,-,N/A,,Clear,0,2014-03-11 15:54:00
12:54 PM,70.0,48.0,46,29.78,10.0,Calm,Calm,-,N/A,,Clear,0,2014-03-11 16:54:00
1:54 PM,72.0,48.0,43,29.74,10.0,SSE,10.4,-,N/A,,Clear,160,2014-03-11 17:54:00
2:54 PM,75.0,44.1,33,29.72,10.0,SSW,8.1,-,N/A,,Clear,200,2014-03-11 18:54:00
3:54 PM,75.9,43.0,31,29.70,10.0,WSW,10.4,18.4,N/A,,Clear,250,2014-03-11 19:54:00
4:54 PM,75.0,44.1,33,29.69,10.0,WSW,10.4,-,N/A,,Clear,240,2014-03-11 20:54:00
5:54 PM,73.0,42.1,33,29.69,10.0,SW,11.5,-,N/A,,Clear,230,2014-03-11 21:54:00
6:54 PM,71.1,43.0,36,29.70,10.0,Calm,Calm,-,N/A,,Clear,0,2014-03-11 22:54:00
7:54 PM,62.1,46.9,58,29.72,10.0,Calm,Calm,-,N/A,,Clear,0,2014-03-11 23:54:00
8:54 PM,55.9,48.0,75,29.72,10.0,Calm,Calm,-,N/A,,Clear,0,2014-03-12 00:54:00
9:54 PM,55.0,48.0,77,29.73,10.0,Calm,Calm,-,N/A,,Clear,0,2014-03-12 01:54:00
10:54 PM,54.0,48.9,83,29.72,7.0,SE,3.5,-,N/A,,Clear,130,2014-03-12 02:54:00
11:54 PM,60.1,46.9,62,29.72,10.0,South,4.6,-,N/A,,Clear,190,2014-03-12 03:54:00